Weather History for Parsons, KS

Change the Weather History Date:

Friday, March 14, 2014

  Actual Average Record
Temperature  
Mean Temperature 54 °F -  
Max Temperature 70 °F 57 °F 82 °F (2002)
Min Temperature 37 °F 33 °F 12 °F (1975)
Degree Days  
Heating Degree Days 12    
Growing Degree Days 4 (Base 50)    
Moisture  
Dew Point 26 °F    
Average Humidity 37    
Maximum Humidity 62    
Minimum Humidity 17    
Precipitation  
Precipitation 0.00 in - - ()
Sea Level Pressure  
Sea Level Pressure 29.94 in    
Wind  
Wind Speed 9 mph (SW)    
Max Wind Speed 15 mph    
Max Gust Speed 22 mph    
Visibility 10 miles    
Events      
Averages and records for this station are not official NWS values.
T = Trace of Precipitation, MM = Missing Value Source: NWS Daily Summary

Daily Weather History Graph

Daily Weather History Graph

Search for Another Location

Airport:

Trip Planner

Search our weather history database for the weather conditions in past years. The results will help you decide how hot, cold, wet, or windy it might be!

Date:

Astronomy

Mar. 14, 2014 Rise Set
Actual Time 7:34 AM CDT 7:28 PM CDT
Civil Twilight 7:08 AM CDT 7:54 PM CDT
Nautical Twilight 6:38 AM CDT 8:24 PM CDT
Astronomical Twilight 6:07 AM CDT 8:55 PM CDT
Moon 5:52 PM CDT (3/14) 6:13 AM CDT (3/14)
Length of Visible Light 12h 45m
Length of Day
11h 53m
Waxing Gibbous, 96% of the Moon is Illuminated
Mar 14
Waxing Gibbous
Mar 16
Full
Mar 23
Last Quarter
Mar 30
New
Apr 7
First Quarter

Hourly Weather History & Observations

Time (CDT) Temp. Dew Point Humidity Pressure Visibility Wind Dir Wind Speed Gust Speed Precip Events Conditions
12:52 AM 48.9 °F 25.0 °F 39% 29.91 in 10.0 mi South 6.9 mph - N/A   Clear
1:52 AM 51.1 °F 26.1 °F 38% 29.90 in 10.0 mi South 12.7 mph - N/A   Clear
2:52 AM 50.0 °F 26.1 °F 39% 29.90 in 10.0 mi South 15.0 mph 21.9 mph N/A   Clear
3:52 AM 48.9 °F 27.0 °F 43% 29.88 in 10.0 mi South 9.2 mph - N/A   Clear
4:52 AM 48.9 °F 28.0 °F 44% 29.86 in 10.0 mi South 12.7 mph 20.7 mph N/A   Clear
5:52 AM 48.0 °F 28.0 °F 46% 29.86 in 10.0 mi South 13.8 mph 21.9 mph N/A   Clear
6:52 AM 48.0 °F 28.9 °F 48% 29.86 in 10.0 mi SSW 10.4 mph - N/A   Clear
7:52 AM 48.9 °F 30.0 °F 48% 29.88 in 10.0 mi SSW 9.2 mph - N/A   Partly Cloudy
8:52 AM 50.0 °F 30.0 °F 46% 29.91 in 10.0 mi SSW 8.1 mph - N/A   Mostly Cloudy
9:52 AM 52.0 °F 30.9 °F 45% 29.94 in 10.0 mi SW 5.8 mph - N/A   Mostly Cloudy
10:52 AM 57.9 °F 28.9 °F 33% 29.96 in 10.0 mi WSW 12.7 mph - N/A   Scattered Clouds
11:52 AM 59.0 °F 28.9 °F 32% 29.97 in 10.0 mi West 10.4 mph - N/A   Scattered Clouds
12:52 PM 63.0 °F 28.0 °F 27% 29.97 in 10.0 mi NW 9.2 mph - N/A   Overcast
1:52 PM 66.0 °F 25.0 °F 21% 29.97 in 10.0 mi North 9.2 mph - N/A   Clear
2:52 PM 66.9 °F 26.1 °F 21% 29.96 in 10.0 mi Variable 5.8 mph - N/A   Clear
3:52 PM 70.0 °F 23.0 °F 17% 29.96 in 10.0 mi NE 3.5 mph - N/A   Clear
4:52 PM 69.1 °F 21.9 °F 17% 29.96 in 10.0 mi NNW 4.6 mph - N/A   Clear
5:52 PM 69.1 °F 21.9 °F 17% 29.95 in 10.0 mi North 6.9 mph - N/A   Clear
6:52 PM 64.9 °F 23.0 °F 20% 29.96 in 10.0 mi North 4.6 mph - N/A   Clear
7:52 PM 57.9 °F 24.1 °F 27% 29.98 in 10.0 mi NNE 4.6 mph - N/A   Clear
8:52 PM 48.9 °F 25.0 °F 39% 30.00 in 10.0 mi NE 3.5 mph - N/A   Clear
9:52 PM 39.0 °F 27.0 °F 62% 30.02 in 10.0 mi Calm Calm - N/A   Clear
10:52 PM 37.9 °F 26.1 °F 62% 30.02 in 10.0 mi Calm Calm - N/A   Clear
11:52 PM 37.0 °F 25.0 °F 62% 30.02 in 10.0 mi Calm Calm - N/A   Clear